M I D A S
Marine Information and Data Acquisition System
Tripno 1525 of the Zeeleeuw from 2008-07-24 07:07:13 to 2008-07-24 14:32:29
Back to CruiseResearch ActivitiesStationsMapUnderway DataData graphs

EquipmentUnitsComments
TimeDGPSUTC
LatitudeDGPSDM.mWGS84
LongitudeDGPSDM.mWGS84
SpeedMeteo Stationm/sRelative wind speed
DirectionMeteo StationdegRelative wind direction
TemperatureMeteo Stationdeg CelciusAir temperature
PressureMeteo StationPaAtmospheric pressure
HumidityMeteo Station%Relative humidity
Missing or incorrect values are displayed as -999
Metereological data collected by the RV Zeeleeuw from 2008-07-24 07:07:16 to 2008-07-24 14:45:47
                                                                                    Next 1000 lines
Time Latitude Longitude Speed Direction Temperature Pressure Humidity
2008-07-24 07:07:26 51°13.622 2°56.048 -999 -999 -999 -999 -999
2008-07-24 07:07:31 51°13.622 2°56.048 -999 -999 -999 -999 -999
2008-07-24 07:07:36 51°13.622 2°56.048 -999 -999 -999 -999 -999
2008-07-24 07:07:40 51°13.622 2°56.047 -999 -999 -999 -999 -999
2008-07-24 07:07:46 51°13.622 2°56.046 -999 -999 -999 -999 -999
2008-07-24 07:07:51 51°13.623 2°56.044 -999 -999 -999 -999 -999
2008-07-24 07:07:56 51°13.623 2°56.041 -999 -999 -999 -999 -999
2008-07-24 07:08:01 51°13.624 2°56.038 -999 -999 -999 -999 -999
2008-07-24 07:08:06 51°13.624 2°56.035 -999 -999 -999 -999 -999
2008-07-24 07:08:11 51°13.625 2°56.031 -999 -999 -999 -999 -999
2008-07-24 07:08:16 51°13.626 2°56.027 -999 -999 -999 -999 -999
2008-07-24 07:08:20 51°13.627 2°56.023 -999 -999 -999 -999 -999
2008-07-24 07:08:26 51°13.629 2°56.018 -999 -999 -999 -999 -999
2008-07-24 07:08:31 51°13.63 2°56.012 -999 -999 -999 -999 -999
2008-07-24 07:08:36 51°13.632 2°56.007 -999 -999 -999 -999 -999
2008-07-24 07:08:41 51°13.634 2°56.001 -999 -999 -999 -999 -999
2008-07-24 07:08:46 51°13.636 2°55.995 -999 -999 -999 -999 -999
2008-07-24 07:08:51 51°13.638 2°55.988 -999 -999 -999 -999 -999
2008-07-24 07:08:56 51°13.641 2°55.982 -999 -999 -999 -999 -999
2008-07-24 07:09:01 51°13.643 2°55.975 -999 -999 -999 -999 -999
2008-07-24 07:09:06 51°13.645 2°55.968 -999 -999 -999 -999 -999
2008-07-24 07:09:11 51°13.647 2°55.96 -999 -999 -999 -999 -999
2008-07-24 07:09:16 51°13.65 2°55.953 -999 -999 -999 -999 -999
2008-07-24 07:09:21 51°13.652 2°55.944 -999 -999 -999 -999 -999
2008-07-24 07:09:26 51°13.654 2°55.936 -999 -999 -999 -999 -999
2008-07-24 07:09:31 51°13.655 2°55.927 -999 -999 -999 -999 -999
2008-07-24 07:09:36 51°13.657 2°55.919 -999 -999 -999 -999 -999
2008-07-24 07:09:41 51°13.659 2°55.91 -999 -999 -999 -999 -999
2008-07-24 07:09:46 51°13.661 2°55.902 -999 -999 -999 -999 -999
2008-07-24 07:09:51 51°13.664 2°55.893 -999 346 -999 -999 -999
2008-07-24 07:09:56 51°13.666 2°55.886 1 322 -999 -999 -999
2008-07-24 07:10:00 51°13.668 2°55.88 1.4 326 -999 -999 -999
2008-07-24 07:10:06 51°13.671 2°55.871 1.5 328 -999 -999 -999
2008-07-24 07:10:11 51°13.674 2°55.863 1.2 320 18.2 -999 68
2008-07-24 07:10:16 51°13.677 2°55.856 1.2 39 18.2 -999 68
2008-07-24 07:10:21 51°13.681 2°55.848 2.1 27 18.3 -999 75
2008-07-24 07:10:26 51°13.685 2°55.841 3.1 32 18.3 -999 75
2008-07-24 07:10:31 51°13.689 2°55.833 3.6 28 18.3 101950 75
2008-07-24 07:10:36 51°13.693 2°55.825 2.6 234 18.3 101950 75
2008-07-24 07:10:41 51°13.697 2°55.818 2.6 29 18.3 101950 76
2008-07-24 07:10:46 51°13.701 2°55.81 3.2 35 18.3 101950 76
2008-07-24 07:10:51 51°13.706 2°55.802 3 30 18.3 101950 76
2008-07-24 07:10:56 51°13.71 2°55.795 2.5 38 18.3 101950 76
2008-07-24 07:11:01 51°13.714 2°55.788 1.7 22 18.4 101950 77
2008-07-24 07:11:06 51°13.718 2°55.781 2.2 324 18.4 101950 77
2008-07-24 07:11:11 51°13.722 2°55.773 3.3 26 18.4 101950 77
2008-07-24 07:11:16 51°13.726 2°55.766 2.2 340 18.4 101950 77
2008-07-24 07:11:20 51°13.729 2°55.759 2.6 320 18.4 101950 77
2008-07-24 07:11:26 51°13.734 2°55.75 1.9 317 18.4 101950 77
2008-07-24 07:11:31 51°13.737 2°55.742 1.4 323 18.4 101950 78
2008-07-24 07:11:36 51°13.741 2°55.733 1.7 320 18.4 101950 78
2008-07-24 07:11:41 51°13.744 2°55.725 1.6 326 18.4 101950 78
2008-07-24 07:11:46 51°13.746 2°55.718 3.1 327 18.4 101950 78
2008-07-24 07:11:51 51°13.749 2°55.711 3.5 327 18.4 101950 77
2008-07-24 07:11:56 51°13.751 2°55.704 3.4 317 18.4 101950 77
2008-07-24 07:12:01 51°13.753 2°55.699 4 325 18.5 101950 77
2008-07-24 07:12:06 51°13.754 2°55.694 4.3 331 18.5 101950 77
2008-07-24 07:12:11 51°13.756 2°55.69 4.2 333 18.5 101950 77
2008-07-24 07:12:16 51°13.757 2°55.688 4 340 18.5 101950 77
2008-07-24 07:12:20 51°13.757 2°55.686 3.7 337 18.5 101950 77
2008-07-24 07:12:25 51°13.758 2°55.686 3.7 338 18.5 101950 77
2008-07-24 07:12:30 51°13.759 2°55.686 4.5 335 18.4 101950 77
2008-07-24 07:12:35 51°13.76 2°55.687 5.3 350 18.4 101950 77
2008-07-24 07:12:40 51°13.761 2°55.69 4.8 354 18.4 101950 76
2008-07-24 07:12:44 51°13.762 2°55.692 5.3 356 18.4 101950 76
2008-07-24 07:12:49 51°13.764 2°55.695 5.9 359 18.4 101950 76
2008-07-24 07:12:54 51°13.765 2°55.698 4.7 359 18.4 101950 76
2008-07-24 07:12:58 51°13.766 2°55.699 4.3 10 18.4 101950 76
2008-07-24 07:13:03 51°13.767 2°55.7 3.9 11 18.4 101950 76
2008-07-24 07:13:08 51°13.768 2°55.7 4.8 4 18.3 101950 76
2008-07-24 07:13:13 51°13.768 2°55.7 4.3 12 18.3 101950 76
2008-07-24 07:13:17 51°13.768 2°55.698 4.4 12 18.3 101940 76
2008-07-24 07:13:23 51°13.768 2°55.696 4.7 18 18.3 101940 76
2008-07-24 07:13:28 51°13.767 2°55.694 4.3 16 18.3 101950 77
2008-07-24 07:13:32 51°13.766 2°55.692 3.8 13 18.3 101950 77
2008-07-24 07:13:38 51°13.763 2°55.688 4.2 24 18.3 101940 77
2008-07-24 07:13:44 51°13.761 2°55.684 5.1 24 18.3 101940 77
2008-07-24 07:13:49 51°13.76 2°55.682 4.9 23 18.3 101950 77
2008-07-24 07:13:55 51°13.758 2°55.679 3.8 24 18.3 101950 77
2008-07-24 07:14:01 51°13.758 2°55.678 3.8 26 18.3 101950 77
2008-07-24 07:14:06 51°13.76 2°55.678 3.8 25 18.3 101950 77
2008-07-24 07:14:11 51°13.762 2°55.677 3.8 25 18.3 101950 77
2008-07-24 07:14:16 51°13.766 2°55.677 3.5 28 18.3 101950 77
2008-07-24 07:14:21 51°13.77 2°55.676 3.2 28 18.3 101950 77
2008-07-24 07:14:26 51°13.776 2°55.674 2.2 35 18.3 101950 77
2008-07-24 07:14:31 51°13.782 2°55.671 2.1 26 18.3 101950 78
2008-07-24 07:14:36 51°13.789 2°55.667 2 24 18.3 101950 78
2008-07-24 07:14:41 51°13.796 2°55.663 2.1 27 18.3 101950 78
2008-07-24 07:14:45 51°13.802 2°55.659 2.4 26 18.3 101950 78
2008-07-24 07:14:50 51°13.811 2°55.653 2.5 27 18.3 101950 78
2008-07-24 07:14:55 51°13.82 2°55.647 1.6 3 18.3 101950 78
2008-07-24 07:15:00 51°13.83 2°55.64 1.9 -999 18.3 101950 78
2008-07-24 07:15:04 51°13.838 2°55.635 2.7 345 18.3 101950 78
2008-07-24 07:15:09 51°13.848 2°55.628 3 347 18.3 101950 78
2008-07-24 07:15:14 51°13.858 2°55.62 2.3 345 18.3 101950 78
2008-07-24 07:15:19 51°13.868 2°55.613 2.3 353 18.3 101950 78
2008-07-24 07:15:24 51°13.879 2°55.605 3.5 339 18.3 101950 78
2008-07-24 07:15:28 51°13.887 2°55.6 3.7 359 18.3 101950 78
2008-07-24 07:15:33 51°13.897 2°55.593 2.2 16 18.3 101950 78
2008-07-24 07:15:38 51°13.907 2°55.586 2.8 7 18.3 101950 78
2008-07-24 07:15:43 51°13.917 2°55.58 3.7 358 18.3 101950 78
2008-07-24 07:15:48 51°13.927 2°55.573 3.9 1 18.3 101960 78
2008-07-24 07:15:52 51°13.935 2°55.567 3.2 11 18.3 101960 78
2008-07-24 07:15:58 51°13.947 2°55.559 2.8 14 18.3 101950 78
2008-07-24 07:16:03 51°13.956 2°55.552 4.2 9 18.3 101950 78
2008-07-24 07:16:08 51°13.965 2°55.544 3.7 17 18.3 101950 78
2008-07-24 07:16:12 51°13.972 2°55.539 3 16 18.3 101950 78
2008-07-24 07:16:16 51°13.98 2°55.533 2.8 20 18.3 101950 78
2008-07-24 07:16:23 51°13.992 2°55.523 2.8 18 18.3 101950 78
2008-07-24 07:16:28 51°14 2°55.515 2.6 21 18.3 101950 78
2008-07-24 07:16:32 51°14.007 2°55.51 2.2 21 18.3 101950 78
2008-07-24 07:16:37 51°14.016 2°55.503 2.3 20 18.3 101950 78
2008-07-24 07:16:42 51°14.024 2°55.496 2.4 21 18.3 101950 78
2008-07-24 07:16:48 51°14.034 2°55.488 2.3 23 18.3 101950 78
2008-07-24 07:16:52 51°14.041 2°55.482 2.1 18 18.3 101950 78
2008-07-24 07:16:57 51°14.05 2°55.476 1.9 15 18.3 101950 78
2008-07-24 07:17:03 51°14.06 2°55.468 1.3 9 18.3 101950 78
2008-07-24 07:17:08 51°14.068 2°55.461 1.4 9 18.3 101950 78
2008-07-24 07:17:13 51°14.077 2°55.455 1.5 2 18.3 101950 78
2008-07-24 07:17:17 51°14.083 2°55.449 1.3 3 18.3 101950 78
2008-07-24 07:17:23 51°14.094 2°55.44 1.2 359 18.3 101950 78
2008-07-24 07:17:28 51°14.103 2°55.433 1.6 15 18.3 101950 78
2008-07-24 07:17:32 51°14.111 2°55.426 2.2 358 18.3 101950 78
2008-07-24 07:17:37 51°14.121 2°55.417 2.1 360 18.3 101960 79
2008-07-24 07:17:42 51°14.132 2°55.408 2.5 14 18.3 101960 79
2008-07-24 07:17:48 51°14.144 2°55.396 2.6 20 18.3 101950 79
2008-07-24 07:17:53 51°14.155 2°55.386 2.2 9 18.3 101950 79
2008-07-24 07:17:58 51°14.166 2°55.374 1.8 353 18.3 101950 79
2008-07-24 07:18:03 51°14.177 2°55.362 2.6 356 18.3 101950 79
2008-07-24 07:18:08 51°14.187 2°55.349 2.5 348 18.3 101950 78
2008-07-24 07:18:12 51°14.196 2°55.339 2 358 18.3 101950 78
2008-07-24 07:18:17 51°14.207 2°55.325 2.4 359 18.3 101950 78
2008-07-24 07:18:23 51°14.22 2°55.308 2.1 20 18.3 101950 78
2008-07-24 07:18:28 51°14.23 2°55.293 2 6 18.3 101950 78
2008-07-24 07:18:32 51°14.238 2°55.281 1.7 22 18.3 101950 78
2008-07-24 07:18:38 51°14.25 2°55.263 1.5 25 18.3 101950 78
2008-07-24 07:18:43 51°14.26 2°55.247 1.4 25 18.3 101950 78
2008-07-24 07:18:48 51°14.27 2°55.232 1.1 28 18.3 101950 78
2008-07-24 07:18:52 51°14.278 2°55.219 0.7 24 18.3 101950 78
2008-07-24 07:18:57 51°14.288 2°55.202 0.6 25 18.3 101950 78
2008-07-24 07:19:02 51°14.299 2°55.185 1 10 18.3 101950 78
2008-07-24 07:19:08 51°14.311 2°55.164 1 10 18.3 101950 78
2008-07-24 07:19:12 51°14.319 2°55.149 0.9 346 18.3 101950 78
2008-07-24 07:19:17 51°14.33 2°55.131 0.8 347 18.3 101950 78
2008-07-24 07:19:22 51°14.339 2°55.111 1.1 332 18.3 101950 78
2008-07-24 07:19:28 51°14.351 2°55.087 0.6 322 18.3 101950 78
2008-07-24 07:19:33 51°14.361 2°55.066 1.6 328 18.3 101950 78
2008-07-24 07:19:37 51°14.368 2°55.049 1.4 325 18.3 101950 78
2008-07-24 07:19:43 51°14.379 2°55.023 1.7 321 18.3 101950 78
2008-07-24 07:19:47 51°14.385 2°55.005 1.8 322 18.3 101950 78
2008-07-24 07:19:52 51°14.394 2°54.982 1.6 318 18.3 101950 78
2008-07-24 07:19:57 51°14.402 2°54.959 1.7 26 18.3 101950 78
2008-07-24 07:20:02 51°14.41 2°54.935 1.5 42 18.3 101950 78
2008-07-24 07:20:08 51°14.421 2°54.907 1.3 28 18.3 101950 78
2008-07-24 07:20:13 51°14.429 2°54.883 1.7 232 18.3 101950 78
2008-07-24 07:20:17 51°14.435 2°54.864 1.7 29 18.3 101940 78
2008-07-24 07:20:23 51°14.444 2°54.834 2 318 18.3 101940 78
2008-07-24 07:20:28 51°14.451 2°54.809 1.6 27 18.3 101950 79
2008-07-24 07:20:32 51°14.457 2°54.789 1.8 239 18.3 101950 79
2008-07-24 07:20:38 51°14.466 2°54.76 1.7 27 18.3 101950 79
2008-07-24 07:20:43 51°14.474 2°54.736 1.5 237 18.3 101950 79
2008-07-24 07:20:48 51°14.481 2°54.711 1.5 24 18.3 101950 79
2008-07-24 07:20:52 51°14.487 2°54.691 1.3 239 18.3 101950 79
2008-07-24 07:20:57 51°14.495 2°54.666 1.1 319 18.4 101950 79
2008-07-24 07:21:03 51°14.504 2°54.636 1 38 18.4 101950 79
2008-07-24 07:21:08 51°14.512 2°54.612 1.2 319 18.4 101950 79
2008-07-24 07:21:12 51°14.518 2°54.592 1.4 328 18.4 101950 79
2008-07-24 07:21:17 51°14.526 2°54.567 1.4 327 18.4 101950 79
2008-07-24 07:21:23 51°14.535 2°54.537 1.1 325 18.4 101950 79
2008-07-24 07:21:28 51°14.542 2°54.513 1.1 318 18.4 101950 79
2008-07-24 07:21:32 51°14.548 2°54.492 1.2 325 18.4 101950 79
2008-07-24 07:21:37 51°14.555 2°54.468 1.1 323 18.4 101950 79
2008-07-24 07:21:43 51°14.564 2°54.437 1 316 18.4 101950 79
2008-07-24 07:21:47 51°14.569 2°54.417 1.4 316 18.4 101950 79
2008-07-24 07:21:53 51°14.577 2°54.387 1.2 34 18.4 101950 79
2008-07-24 07:21:57 51°14.583 2°54.366 1 26 18.4 101940 78
2008-07-24 07:22:03 51°14.591 2°54.336 1.4 36 18.4 101940 78
2008-07-24 07:22:07 51°14.596 2°54.316 1.1 322 18.5 101950 79
2008-07-24 07:22:12 51°14.602 2°54.29 1.2 319 18.5 101950 79
2008-07-24 07:22:17 51°14.609 2°54.265 0.9 317 18.5 101950 79
2008-07-24 07:22:22 51°14.616 2°54.239 0.8 316 18.5 101950 79
2008-07-24 07:22:28 51°14.624 2°54.209 1 317 18.5 101950 79
2008-07-24 07:22:33 51°14.631 2°54.184 0.8 326 18.5 101950 79
2008-07-24 07:22:37 51°14.637 2°54.164 0.7 330 18.5 101950 79
2008-07-24 07:22:43 51°14.646 2°54.133 0.9 342 18.5 101950 79
2008-07-24 07:22:48 51°14.653 2°54.108 0.9 340 18.5 101950 79
2008-07-24 07:22:52 51°14.659 2°54.088 1.1 339 18.5 101950 79
2008-07-24 07:22:58 51°14.669 2°54.059 1 337 18.6 101950 79
2008-07-24 07:23:03 51°14.677 2°54.034 1 342 18.6 101950 79
2008-07-24 07:23:08 51°14.685 2°54.01 1 337 18.6 101950 78
2008-07-24 07:23:12 51°14.691 2°53.99 1.1 343 18.6 101950 78
2008-07-24 07:23:17 51°14.699 2°53.966 1.2 335 18.6 101950 78
2008-07-24 07:23:23 51°14.709 2°53.937 1.5 344 18.6 101950 78
2008-07-24 07:23:28 51°14.717 2°53.913 1.4 338 18.6 101950 78
2008-07-24 07:23:32 51°14.724 2°53.894 1.3 346 18.6 101950 78
2008-07-24 07:23:37 51°14.733 2°53.871 1.3 339 18.6 101950 78
2008-07-24 07:23:42 51°14.741 2°53.847 1.5 337 18.6 101950 78
2008-07-24 07:23:48 51°14.751 2°53.818 1.7 340 18.6 101950 78
2008-07-24 07:23:53 51°14.759 2°53.794 1.8 343 18.6 101950 78
2008-07-24 07:23:57 51°14.765 2°53.775 2 342 18.6 101950 78
2008-07-24 07:24:03 51°14.775 2°53.746 2.2 336 18.6 101950 78
2008-07-24 07:24:08 51°14.783 2°53.722 2.5 335 18.6 101950 78
2008-07-24 07:24:12 51°14.789 2°53.703 2.8 343 18.6 101950 78
2008-07-24 07:24:17 51°14.797 2°53.679 2.5 338 18.6 101950 78
2008-07-24 07:24:22 51°14.805 2°53.655 3.5 345 18.6 101950 78
2008-07-24 07:24:28 51°14.815 2°53.627 3.9 340 18.6 101950 78
2008-07-24 07:24:33 51°14.823 2°53.603 3.4 336 18.6 101950 78
2008-07-24 07:24:37 51°14.83 2°53.584 4 337 18.6 101950 78
2008-07-24 07:24:43 51°14.84 2°53.556 3.4 338 18.6 101950 78
2008-07-24 07:24:48 51°14.848 2°53.532 3.5 338 18.6 101960 78
2008-07-24 07:24:53 51°14.856 2°53.508 3.8 338 18.6 101960 78
2008-07-24 07:24:58 51°14.864 2°53.485 4 341 18.6 101960 78
2008-07-24 07:25:03 51°14.872 2°53.461 4 345 18.6 101960 78
2008-07-24 07:25:08 51°14.88 2°53.437 3.6 343 18.6 101950 79
2008-07-24 07:25:12 51°14.886 2°53.417 3.8 340 18.6 101950 79
2008-07-24 07:25:17 51°14.893 2°53.393 3.7 342 18.6 101960 79
2008-07-24 07:25:23 51°14.902 2°53.364 3.1 347 18.6 101960 79
2008-07-24 07:25:28 51°14.91 2°53.34 3.2 345 18.7 101960 79
2008-07-24 07:25:32 51°14.916 2°53.321 3.6 343 18.7 101960 79
2008-07-24 07:25:37 51°14.924 2°53.296 3.6 345 18.6 101960 79
2008-07-24 07:25:42 51°14.932 2°53.272 3.8 342 18.6 101960 79
2008-07-24 07:25:48 51°14.941 2°53.243 3.8 341 18.6 101960 78
2008-07-24 07:25:52 51°14.947 2°53.224 3.9 343 18.6 101960 78
2008-07-24 07:25:57 51°14.955 2°53.2 3.7 340 18.6 101960 78
2008-07-24 07:26:03 51°14.965 2°53.171 3.3 346 18.6 101960 78
2008-07-24 07:26:08 51°14.973 2°53.147 3.3 345 18.6 101960 78
2008-07-24 07:26:13 51°14.98 2°53.123 3.4 343 18.6 101960 78
2008-07-24 07:26:17 51°14.987 2°53.104 3.5 345 18.6 101950 79
2008-07-24 07:26:23 51°14.996 2°53.075 3.5 342 18.6 101950 79
2008-07-24 07:26:28 51°15.004 2°53.051 3.3 341 18.5 101960 79
2008-07-24 07:26:32 51°15.01 2°53.031 3 340 18.5 101960 79
2008-07-24 07:26:37 51°15.018 2°53.007 2.8 342 18.5 101960 79
2008-07-24 07:26:42 51°15.025 2°52.983 3.2 343 18.5 101960 79
2008-07-24 07:26:48 51°15.035 2°52.954 3 345 18.5 101960 78
2008-07-24 07:26:53 51°15.043 2°52.929 2.9 341 18.5 101960 78
2008-07-24 07:26:57 51°15.049 2°52.91 2.9 343 18.4 101960 78
2008-07-24 07:27:03 51°15.059 2°52.881 2.5 344 18.4 101960 78
2008-07-24 07:27:08 51°15.066 2°52.857 2.6 343 18.4 101960 78
2008-07-24 07:27:12 51°15.072 2°52.838 2.9 340 18.4 101960 78
2008-07-24 07:27:18 51°15.082 2°52.808 2.7 340 18.4 101960 79
2008-07-24 07:27:23 51°15.09 2°52.784 2.7 345 18.4 101960 79
2008-07-24 07:27:28 51°15.097 2°52.76 2.7 343 18.4 101960 79
2008-07-24 07:27:32 51°15.104 2°52.74 2.8 339 18.4 101960 79
2008-07-24 07:27:37 51°15.111 2°52.716 3.1 335 18.3 101950 79
2008-07-24 07:27:43 51°15.121 2°52.686 3.1 349 18.3 101950 79
2008-07-24 07:27:48 51°15.129 2°52.662 2.7 346 18.4 101960 79
2008-07-24 07:27:52 51°15.136 2°52.643 2.8 348 18.4 101960 79
2008-07-24 07:27:57 51°15.144 2°52.618 2.8 345 18.4 101960 79
2008-07-24 07:28:03 51°15.153 2°52.589 2.6 346 18.4 101960 79
2008-07-24 07:28:08 51°15.161 2°52.565 2.8 349 18.4 101960 80
2008-07-24 07:28:12 51°15.167 2°52.546 2.4 346 18.4 101960 80
2008-07-24 07:28:17 51°15.175 2°52.521 2.5 346 18.4 101960 80
2008-07-24 07:28:23 51°15.185 2°52.493 2.2 345 18.4 101960 80
2008-07-24 07:28:28 51°15.193 2°52.469 2.2 348 18.4 101960 79
2008-07-24 07:28:33 51°15.201 2°52.444 2.2 343 18.4 101960 79
2008-07-24 07:28:37 51°15.208 2°52.425 2.3 343 18.3 101950 80
2008-07-24 07:28:43 51°15.217 2°52.396 2.4 343 18.3 101950 80
2008-07-24 07:28:47 51°15.224 2°52.377 2.2 346 18.3 101960 80
2008-07-24 07:28:52 51°15.232 2°52.352 2.3 345 18.3 101960 80
2008-07-24 07:28:57 51°15.24 2°52.328 2.3 344 18.3 101960 80
2008-07-24 07:29:02 51°15.248 2°52.304 2.3 342 18.3 101960 80
2008-07-24 07:29:08 51°15.258 2°52.275 2.3 342 18.3 101960 80
2008-07-24 07:29:13 51°15.266 2°52.25 2.4 341 18.3 101960 80
2008-07-24 07:29:17 51°15.273 2°52.231 2.6 343 18.3 101960 80
2008-07-24 07:29:23 51°15.282 2°52.201 2.4 341 18.3 101960 80
2008-07-24 07:29:28 51°15.291 2°52.177 2.3 344 18.3 101950 80
2008-07-24 07:29:32 51°15.297 2°52.158 2.4 338 18.3 101950 80
2008-07-24 07:29:38 51°15.307 2°52.128 2.5 341 18.3 101960 80
2008-07-24 07:29:43 51°15.315 2°52.104 2.5 340 18.3 101960 80
2008-07-24 07:29:48 51°15.323 2°52.08 2.2 338 18.3 101960 80
2008-07-24 07:29:52 51°15.33 2°52.06 2.7 338 18.3 101960 80
2008-07-24 07:29:57 51°15.339 2°52.036 2.9 338 18.3 101960 80
2008-07-24 07:30:03 51°15.349 2°52.008 2.7 343 18.3 101960 80
2008-07-24 07:30:08 51°15.358 2°51.984 2.3 342 18.3 101960 80
2008-07-24 07:30:12 51°15.365 2°51.964 2.6 339 18.3 101960 80
2008-07-24 07:30:17 51°15.373 2°51.94 2.2 341 18.3 101950 80
2008-07-24 07:30:22 51°15.382 2°51.916 2.4 336 18.3 101950 80
2008-07-24 07:30:28 51°15.391 2°51.886 2.4 336 18.3 101960 80
2008-07-24 07:30:33 51°15.4 2°51.862 2.2 338 18.3 101960 80
2008-07-24 07:30:37 51°15.406 2°51.843 2 337 18.3 101950 81
2008-07-24 07:30:43 51°15.416 2°51.814 2.2 339 18.3 101950 81
2008-07-24 07:30:48 51°15.425 2°51.79 2.1 342 18.3 101960 81
2008-07-24 07:30:52 51°15.432 2°51.77 2.3 339 18.3 101960 81
2008-07-24 07:30:57 51°15.44 2°51.746 2.3 337 18.3 101960 81
2008-07-24 07:31:02 51°15.448 2°51.722 2.7 342 18.3 101960 81
2008-07-24 07:31:08 51°15.458 2°51.693 2.5 336 18.3 101960 81
2008-07-24 07:31:12 51°15.464 2°51.673 2.4 345 18.3 101960 81
2008-07-24 07:31:17 51°15.473 2°51.649 2.1 338 18.3 101960 80
2008-07-24 07:31:23 51°15.483 2°51.62 2.3 342 18.3 101960 80
2008-07-24 07:31:28 51°15.492 2°51.596 2.4 343 18.3 101960 80
2008-07-24 07:31:33 51°15.5 2°51.572 2.2 344 18.3 101960 80
2008-07-24 07:31:37 51°15.507 2°51.552 2.1 345 18.3 101960 81
2008-07-24 07:31:43 51°15.517 2°51.524 2.4 340 18.3 101960 81
2008-07-24 07:31:48 51°15.525 2°51.5 2.4 339 18.3 101950 81
2008-07-24 07:31:52 51°15.533 2°51.481 2.8 346 18.3 101950 81
2008-07-24 07:31:58 51°15.543 2°51.452 2.8 347 18.3 101960 80
2008-07-24 07:32:03 51°15.552 2°51.428 2.7 341 18.3 101960 80
2008-07-24 07:32:08 51°15.561 2°51.405 2.7 345 18.3 101950 80
2008-07-24 07:32:12 51°15.569 2°51.386 2.4 345 18.3 101950 80
2008-07-24 07:32:18 51°15.58 2°51.357 2.6 349 18.3 101960 81
2008-07-24 07:32:23 51°15.589 2°51.333 3.2 344 18.3 101960 81
2008-07-24 07:32:28 51°15.598 2°51.31 3.1 345 18.3 101950 81
2008-07-24 07:32:32 51°15.606 2°51.291 3.4 347 18.3 101950 81
2008-07-24 07:32:37 51°15.615 2°51.267 2.9 345 18.3 101950 81
2008-07-24 07:32:43 51°15.625 2°51.239 2.8 342 18.3 101950 81
2008-07-24 07:32:48 51°15.634 2°51.215 2.9 344 18.3 101950 81
2008-07-24 07:32:53 51°15.642 2°51.191 3.1 349 18.3 101950 81
2008-07-24 07:32:57 51°15.65 2°51.172 2.9 349 18.3 101950 81
2008-07-24 07:33:03 51°15.66 2°51.144 3.4 348 18.3 101950 81
2008-07-24 07:33:08 51°15.669 2°51.12 3.3 347 18.3 101950 81
2008-07-24 07:33:12 51°15.675 2°51.101 3.9 352 18.3 101950 81
2008-07-24 07:33:17 51°15.684 2°51.078 1.9 348 18.3 101960 81
2008-07-24 07:33:22 51°15.693 2°51.054 3.1 349 18.3 101960 81
2008-07-24 07:33:28 51°15.704 2°51.026 3.6 355 18.3 101950 82
2008-07-24 07:33:33 51°15.712 2°51.002 3.6 352 18.3 101950 82
2008-07-24 07:33:37 51°15.719 2°50.983 3.3 351 18.3 101960 82
2008-07-24 07:33:43 51°15.729 2°50.954 3.3 349 18.3 101960 82
2008-07-24 07:33:48 51°15.738 2°50.931 3.7 347 18.3 101950 82
2008-07-24 07:33:52 51°15.744 2°50.911 3.1 352 18.3 101950 82
2008-07-24 07:33:57 51°15.752 2°50.887 3.3 354 18.3 101950 81
2008-07-24 07:34:03 51°15.762 2°50.858 3.4 353 18.3 101950 81
2008-07-24 07:34:08 51°15.77 2°50.833 3 353 18.2 101960 82
2008-07-24 07:34:12 51°15.776 2°50.814 3.2 353 18.2 101960 82
2008-07-24 07:34:17 51°15.783 2°50.789 2.9 351 18.2 101960 81
2008-07-24 07:34:23 51°15.793 2°50.76 3.3 351 18.2 101960 81
2008-07-24 07:34:28 51°15.801 2°50.735 3 350 18.2 101950 81
2008-07-24 07:34:32 51°15.807 2°50.716 3 351 18.2 101950 81
2008-07-24 07:34:37 51°15.815 2°50.691 3 351 18.2 101960 81
2008-07-24 07:34:43 51°15.824 2°50.661 3.1 347 18.2 101960 81
2008-07-24 07:34:48 51°15.832 2°50.637 3 347 18.1 101950 81
2008-07-24 07:34:52 51°15.838 2°50.617 3.4 352 18.1 101950 81
2008-07-24 07:34:57 51°15.846 2°50.593 3.3 349 18.1 101960 81
2008-07-24 07:35:03 51°15.856 2°50.563 3.2 354 18.1 101960 81
2008-07-24 07:35:08 51°15.864 2°50.539 3.2 353 18.1 101950 82
2008-07-24 07:35:12 51°15.871 2°50.52 3.3 354 18.1 101950 82
2008-07-24 07:35:17 51°15.88 2°50.496 3.2 354 18.1 101960 82
2008-07-24 07:35:22 51°15.889 2°50.473 3.4 355 18.1 101960 82
2008-07-24 07:35:28 51°15.9 2°50.445 3.4 350 18.1 101960 82
2008-07-24 07:35:33 51°15.911 2°50.423 3.5 351 18.1 101960 82
2008-07-24 07:35:37 51°15.919 2°50.405 3.5 350 18 101950 82
2008-07-24 07:35:43 51°15.931 2°50.379 3.8 354 18 101950 82
2008-07-24 07:35:47 51°15.94 2°50.362 3.7 354 18 101950 82
2008-07-24 07:35:52 51°15.95 2°50.34 3.6 357 18 101950 82
2008-07-24 07:35:56 51°15.959 2°50.323 3.7 356 18 101960 82
2008-07-24 07:36:03 51°15.975 2°50.294 4 357 18 101960 82
2008-07-24 07:36:08 51°15.987 2°50.276 3.7 356 18 101960 82
2008-07-24 07:36:13 51°16 2°50.257 4.7 351 18 101960 82
2008-07-24 07:36:17 51°16.01 2°50.243 4.2 354 18 101960 82
2008-07-24 07:36:23 51°16.026 2°50.222 4.5 354 18 101960 82
2008-07-24 07:36:28 51°16.039 2°50.205 4.3 352 18 101950 82
2008-07-24 07:36:32 51°16.05 2°50.192 4.9 355 18 101950 82
2008-07-24 07:36:37 51°16.063 2°50.175 4.7 357 18 101950 82
2008-07-24 07:36:43 51°16.08 2°50.156 4.5 358 18 101950 82
2008-07-24 07:36:48 51°16.094 2°50.141 4.5 359 18 101950 83
2008-07-24 07:36:52 51°16.105 2°50.129 4.4 356 18 101950 83
2008-07-24 07:36:57 51°16.119 2°50.115 5.4 359 18 101950 83
2008-07-24 07:37:03 51°16.137 2°50.098 5.2 357 18 101950 83
2008-07-24 07:37:08 51°16.152 2°50.085 5.2 356 18 101950 83
2008-07-24 07:37:12 51°16.164 2°50.075 5.6 360 18 101950 83
2008-07-24 07:37:17 51°16.179 2°50.063 5.3 1 18 101950 83
2008-07-24 07:37:23 51°16.197 2°50.048 5.4 359 18 101950 83
2008-07-24 07:37:28 51°16.212 2°50.036 5.1 360 18 101950 83
2008-07-24 07:37:33 51°16.228 2°50.023 5 357 18 101950 83
2008-07-24 07:37:37 51°16.24 2°50.013 5 1 18 101950 83
2008-07-24 07:37:43 51°16.258 2°49.999 5.4 359 18 101950 83
2008-07-24 07:37:48 51°16.273 2°49.987 5.2 1 18 101950 83
2008-07-24 07:37:52 51°16.285 2°49.977 4.8 358 18 101950 83
2008-07-24 07:37:58 51°16.304 2°49.962 4.9 -999 17.9 101950 83
2008-07-24 07:38:03 51°16.319 2°49.951 5.1 360 17.9 101950 83
2008-07-24 07:38:08 51°16.335 2°49.939 5.3 358 17.9 101950 83
2008-07-24 07:38:13 51°16.35 2°49.928 5.5 -999 17.9 101950 83
2008-07-24 07:38:17 51°16.362 2°49.919 5.1 -999 17.9 101950 83
2008-07-24 07:38:23 51°16.381 2°49.906 5.2 360 17.9 101950 83
2008-07-24 07:38:28 51°16.396 2°49.895 5.2 360 17.9 101950 84
2008-07-24 07:38:32 51°16.408 2°49.886 5.1 360 17.9 101950 84
2008-07-24 07:38:37 51°16.424 2°49.875 5.2 -999 17.9 101950 83
2008-07-24 07:38:43 51°16.443 2°49.862 5.4 356 17.9 101950 83
2008-07-24 07:38:48 51°16.458 2°49.851 5.1 359 17.9 101950 83
2008-07-24 07:38:52 51°16.47 2°49.842 5.3 356 17.9 101950 83
2008-07-24 07:38:58 51°16.489 2°49.829 4.8 357 17.9 101950 83
2008-07-24 07:39:03 51°16.505 2°49.817 5.3 357 17.9 101950 83
2008-07-24 07:39:08 51°16.52 2°49.806 5.7 356 17.8 101950 84
2008-07-24 07:39:12 51°16.532 2°49.796 5.3 356 17.8 101950 84
2008-07-24 07:39:17 51°16.547 2°49.785 5.5 354 17.8 101950 84
2008-07-24 07:39:23 51°16.566 2°49.772 5.4 357 17.8 101950 84
2008-07-24 07:39:28 51°16.581 2°49.762 5.4 355 17.8 101950 84
2008-07-24 07:39:32 51°16.594 2°49.754 5.3 1 17.8 101950 84
2008-07-24 07:39:37 51°16.608 2°49.744 5.2 357 17.8 101950 84
2008-07-24 07:39:42 51°16.622 2°49.735 4.9 359 17.8 101950 84
2008-07-24 07:39:48 51°16.638 2°49.726 4.9 2 17.8 101950 84
2008-07-24 07:39:52 51°16.647 2°49.721 4.5 4 17.8 101950 84
2008-07-24 07:39:56 51°16.656 2°49.716 4.4 6 17.8 101950 84
2008-07-24 07:40:03 51°16.67 2°49.709 5.2 7 17.8 101950 84
2008-07-24 07:40:07 51°16.677 2°49.705 5.3 8 17.8 101950 85
2008-07-24 07:40:12 51°16.686 2°49.701 4.5 8 17.8 101950 85
2008-07-24 07:40:17 51°16.695 2°49.698 4.4 8 17.8 101950 84
2008-07-24 07:40:23 51°16.704 2°49.694 5.3 9 17.8 101950 84
2008-07-24 07:40:28 51°16.711 2°49.692 5.4 9 17.8 101950 84
2008-07-24 07:40:32 51°16.716 2°49.69 5.2 14 17.8 101950 84
2008-07-24 07:40:37 51°16.722 2°49.688 4.8 14 17.8 101950 84
2008-07-24 07:40:43 51°16.728 2°49.686 5.4 12 17.8 101950 84
2008-07-24 07:40:48 51°16.733 2°49.685 4.8 9 17.8 101950 84
2008-07-24 07:40:52 51°16.736 2°49.685 5.2 8 17.8 101950 84
2008-07-24 07:40:57 51°16.74 2°49.684 5.2 9 17.8 101950 85
2008-07-24 07:41:03 51°16.743 2°49.684 5.5 8 17.8 101950 85
2008-07-24 07:41:08 51°16.746 2°49.683 5.4 8 17.8 101950 85
2008-07-24 07:41:12 51°16.747 2°49.683 4.1 8 17.8 101950 85
2008-07-24 07:41:18 51°16.749 2°49.682 4.5 9 17.8 101950 84
2008-07-24 07:41:23 51°16.75 2°49.681 3.7 7 17.8 101950 84
2008-07-24 07:41:28 51°16.751 2°49.679 4.5 8 17.7 101950 84
2008-07-24 07:41:32 51°16.751 2°49.677 4.2 8 17.7 101950 84
2008-07-24 07:41:37 51°16.751 2°49.676 3.6 7 17.7 101950 84
2008-07-24 07:41:43 51°16.751 2°49.673 4.4 10 17.7 101950 84
2008-07-24 07:41:48 51°16.751 2°49.671 3.5 4 17.7 101960 84
2008-07-24 07:41:53 51°16.751 2°49.669 3.9 9 17.7 101960 84
2008-07-24 07:41:56 51°16.751 2°49.668 4.5 7 17.7 101950 85
2008-07-24 07:42:03 51°16.751 2°49.667 3.7 5 17.7 101950 85
2008-07-24 07:42:08 51°16.752 2°49.666 3.6 3 17.7 101950 85
2008-07-24 07:42:12 51°16.753 2°49.666 4.7 357 17.7 101950 85
2008-07-24 07:42:17 51°16.755 2°49.668 4.9 357 17.8 101950 85
2008-07-24 07:42:22 51°16.757 2°49.67 5.2 350 17.8 101950 85
2008-07-24 07:42:28 51°16.759 2°49.672 4.8 351 17.8 101950 85
2008-07-24 07:42:32 51°16.759 2°49.674 4.3 350 17.8 101950 85
2008-07-24 07:42:36 51°16.76 2°49.674 4.4 349 17.8 101950 85
2008-07-24 07:42:43 51°16.761 2°49.674 5 349 17.8 101950 85
2008-07-24 07:42:48 51°16.761 2°49.674 4.8 347 17.8 101950 85
2008-07-24 07:42:52 51°16.762 2°49.673 4.7 347 17.8 101950 85
2008-07-24 07:42:58 51°16.762 2°49.673 4.7 346 17.8 101950 85
2008-07-24 07:43:03 51°16.763 2°49.673 4.7 346 17.8 101950 85
2008-07-24 07:43:08 51°16.763 2°49.673 4.4 345 17.8 101950 85
2008-07-24 07:43:12 51°16.764 2°49.672 4.6 347 17.8 101950 85
2008-07-24 07:43:16 51°16.764 2°49.672 4.7 346 17.8 101950 85
2008-07-24 07:43:23 51°16.764 2°49.672 4.4 342 17.8 101950 85
2008-07-24 07:43:28 51°16.764 2°49.671 4.8 344 17.8 101950 85
2008-07-24 07:43:32 51°16.765 2°49.671 4.5 342 17.8 101950 85
2008-07-24 07:43:38 51°16.765 2°49.67 4.6 342 17.8 101950 85
2008-07-24 07:43:43 51°16.765 2°49.669 4.1 345 17.8 101950 85
2008-07-24 07:43:48 51°16.766 2°49.669 4.1 344 17.8 101950 85
2008-07-24 07:43:52 51°16.766 2°49.668 4.6 343 17.8 101950 85
2008-07-24 07:43:57 51°16.766 2°49.668 4.7 344 17.8 101950 85
2008-07-24 07:44:03 51°16.767 2°49.667 4.1 342 17.8 101950 85
2008-07-24 07:44:08 51°16.767 2°49.666 4.3 341 17.8 101950 85
2008-07-24 07:44:11 51°16.767 2°49.665 4.4 342 17.8 101950 85
2008-07-24 07:44:16 51°16.767 2°49.665 4.6 339 17.8 101950 85
2008-07-24 07:44:22 51°16.767 2°49.664 4.5 340 17.8 101950 85
2008-07-24 07:44:28 51°16.768 2°49.663 4.3 343 17.8 101950 85
2008-07-24 07:44:32 51°16.768 2°49.662 4.9 343 17.8 101950 85
2008-07-24 07:44:36 51°16.768 2°49.661 4.7 342 17.8 101950 85
2008-07-24 07:44:43 51°16.768 2°49.66 4.8 342 17.8 101950 85
2008-07-24 07:44:47 51°16.768 2°49.659 4.6 343 17.8 101950 85
2008-07-24 07:44:52 51°16.769 2°49.659 4.7 344 17.8 101950 85
2008-07-24 07:44:56 51°16.769 2°49.658 4.6 344 17.9 101950 85
2008-07-24 07:45:03 51°16.769 2°49.656 4.2 344 17.9 101950 85
2008-07-24 07:45:08 51°16.769 2°49.655 4.2 342 17.9 101950 85
2008-07-24 07:45:12 51°16.769 2°49.654 4.3 343 17.9 101950 85
2008-07-24 07:45:16 51°16.769 2°49.653 4.2 344 17.9 101950 85
2008-07-24 07:45:23 51°16.769 2°49.651 4.3 345 17.9 101950 85
2008-07-24 07:45:28 51°16.769 2°49.65 4.5 343 17.9 101950 85
2008-07-24 07:45:32 51°16.77 2°49.649 4.8 346 17.9 101950 85
2008-07-24 07:45:38 51°16.77 2°49.647 4.5 344 17.9 101950 85
2008-07-24 07:45:43 51°16.77 2°49.646 4.5 349 17.9 101950 85
2008-07-24 07:45:48 51°16.77 2°49.644 4.6 347 17.9 101950 85
2008-07-24 07:45:52 51°16.77 2°49.643 4.6 347 17.9 101950 85
2008-07-24 07:45:56 51°16.77 2°49.642 4.4 348 17.9 101950 85
2008-07-24 07:46:03 51°16.77 2°49.64 4.3 346 17.9 101950 85
2008-07-24 07:46:08 51°16.77 2°49.638 4.1 347 17.9 101950 85
2008-07-24 07:46:12 51°16.77 2°49.637 4 348 17.9 101950 85
2008-07-24 07:46:16 51°16.77 2°49.636 4.2 347 17.9 101950 85
2008-07-24 07:46:23 51°16.77 2°49.633 4 350 17.9 101950 85
2008-07-24 07:46:28 51°16.77 2°49.632 4.4 350 17.9 101960 84
2008-07-24 07:46:32 51°16.77 2°49.63 4.6 352 17.9 101960 84
2008-07-24 07:46:36 51°16.77 2°49.629 4.5 352 17.9 101950 84
2008-07-24 07:46:43 51°16.77 2°49.626 4.4 352 17.9 101950 84
2008-07-24 07:46:48 51°16.77 2°49.625 4.3 351 17.9 101960 85
2008-07-24 07:46:52 51°16.77 2°49.623 4.2 352 17.9 101960 85
2008-07-24 07:46:57 51°16.77 2°49.622 4.8 353 17.9 101950 85
2008-07-24 07:47:03 51°16.77 2°49.619 4.3 355 17.9 101950 85
2008-07-24 07:47:08 51°16.77 2°49.617 4.6 354 17.9 101950 85
2008-07-24 07:47:12 51°16.77 2°49.616 4.6 358 17.9 101950 85
2008-07-24 07:47:16 51°16.77 2°49.614 4.5 356 17.9 101960 85
2008-07-24 07:47:23 51°16.77 2°49.611 4.8 357 17.9 101960 85
2008-07-24 07:47:28 51°16.77 2°49.61 4.8 355 17.9 101960 85
2008-07-24 07:47:32 51°16.77 2°49.608 4.7 1 17.9 101960 85
2008-07-24 07:47:38 51°16.77 2°49.606 4.3 358 17.9 101960 85
2008-07-24 07:47:43 51°16.77 2°49.604 4.3 358 17.9 101960 85
2008-07-24 07:47:48 51°16.77 2°49.602 4.4 1 17.9 101950 85
2008-07-24 07:47:52 51°16.77 2°49.6 4.4 2 17.9 101950 85
2008-07-24 07:47:56 51°16.77 2°49.598 4.3 -999 17.9 101950 84
2008-07-24 07:48:03 51°16.77 2°49.596 4.8 2 17.9 101950 84
2008-07-24 07:48:08 51°16.77 2°49.593 4.7 3 17.9 101960 85
2008-07-24 07:48:12 51°16.77 2°49.592 4.9 4 17.9 101960 85
2008-07-24 07:48:16 51°16.77 2°49.59 4.2 3 17.9 101960 85
2008-07-24 07:48:23 51°16.77 2°49.587 4.7 5 17.9 101960 85
2008-07-24 07:48:28 51°16.77 2°49.585 4.3 5 17.9 101950 85
2008-07-24 07:48:32 51°16.77 2°49.583 4.5 6 17.9 101950 85
2008-07-24 07:48:37 51°16.77 2°49.581 4.1 5 17.9 101960 85
2008-07-24 07:48:43 51°16.77 2°49.579 4.5 4 17.9 101960 85
2008-07-24 07:48:48 51°16.77 2°49.577 4.4 3 17.9 101950 85
2008-07-24 07:48:52 51°16.77 2°49.575 4.4 6 17.9 101950 85
2008-07-24 07:48:57 51°16.77 2°49.573 4.6 6 17.9 101950 85
2008-07-24 07:49:02 51°16.769 2°49.571 4.2 7 17.9 101950 85
2008-07-24 07:49:08 51°16.769 2°49.568 4.4 7 17.9 101950 85
2008-07-24 07:49:13 51°16.769 2°49.566 4.3 8 17.9 101950 85
2008-07-24 07:49:17 51°16.769 2°49.564 4.1 8 17.9 101950 85
2008-07-24 07:49:23 51°16.769 2°49.562 4.4 9 17.9 101950 85
2008-07-24 07:49:28 51°16.769 2°49.56 4.8 10 17.9 101960 85
2008-07-24 07:49:33 51°16.769 2°49.558 4.8 11 17.9 101960 85
2008-07-24 07:49:38 51°16.769 2°49.556 4.4 9 17.9 101950 85
2008-07-24 07:49:43 51°16.769 2°49.554 4.7 12 17.9 101950 85
2008-07-24 07:49:48 51°16.768 2°49.551 4.4 8 17.9 101950 85
2008-07-24 07:49:53 51°16.768 2°49.55 4.6 14 17.9 101950 85
2008-07-24 07:49:56 51°16.768 2°49.548 4.2 12 18 101950 85
2008-07-24 07:50:03 51°16.769 2°49.546 4.8 11 18 101950 85
2008-07-24 07:50:08 51°16.769 2°49.544 4.6 13 17.9 101950 85
2008-07-24 07:50:12 51°16.77 2°49.543 4.5 8 17.9 101950 85
2008-07-24 07:50:17 51°16.772 2°49.542 4.9 7 18 101950 85
2008-07-24 07:50:23 51°16.776 2°49.542 4.5 7 18 101950 85
2008-07-24 07:50:28 51°16.781 2°49.542 4.7 7 18 101950 85
2008-07-24 07:50:32 51°16.786 2°49.541 5.2 10 18 101950 85
2008-07-24 07:50:36 51°16.791 2°49.539 4.6 10 18 101960 85
2008-07-24 07:50:43 51°16.802 2°49.532 4.7 9 18 101960 85
2008-07-24 07:50:48 51°16.81 2°49.526 4.6 12 18 101950 85
2008-07-24 07:50:52 51°16.817 2°49.52 3.9 3 18 101950 85
2008-07-24 07:50:56 51°16.826 2°49.513 4.1 2 18 101950 85
2008-07-24 07:51:02 51°16.839 2°49.503 5 359 18 101950 85
2008-07-24 07:51:08 51°16.853 2°49.493 4.9 1 18 101950 85
2008-07-24 07:51:13 51°16.866 2°49.483 5.7 358 18 101950 85
2008-07-24 07:51:16 51°16.874 2°49.478 5.4 357 18 101950 85
2008-07-24 07:51:23 51°16.893 2°49.464 5.8 356 18 101950 85
2008-07-24 07:51:28 51°16.908 2°49.454 5.8 355 17.9 101950 85
2008-07-24 07:51:32 51°16.919 2°49.445 5.9 352 17.9 101950 85
2008-07-24 07:51:37 51°16.934 2°49.434 5.7 352 18 101950 85
2008-07-24 07:51:42 51°16.948 2°49.424 6.3 357 18 101950 85
2008-07-24 07:51:48 51°16.966 2°49.41 5.8 356 17.9 101950 85
2008-07-24 07:51:52 51°16.978 2°49.4 6.2 354 17.9 101950 85
2008-07-24 07:51:56 51°16.99 2°49.39 5.7 354 18 101950 85
2008-07-24 07:52:03 51°17.01 2°49.371 5.8 351 18 101950 85
2008-07-24 07:52:08 51°17.025 2°49.359 6.2 351 17.9 101950 85
2008-07-24 07:52:12 51°17.037 2°49.349 6.2 350 17.9 101950 85
2008-07-24 07:52:18 51°17.055 2°49.333 6.1 350 17.9 101950 85
2008-07-24 07:52:23 51°17.07 2°49.32 6 355 17.9 101950 85
2008-07-24 07:52:28 51°17.085 2°49.306 5.5 353 17.9 101950 85
2008-07-24 07:52:32 51°17.096 2°49.295 6.1 351 17.9 101950 85
2008-07-24 07:52:36 51°17.108 2°49.284 5.8 352 17.9 101950 85
2008-07-24 07:52:43 51°17.128 2°49.264 5.6 353 17.9 101950 85
2008-07-24 07:52:48 51°17.142 2°49.25 5.5 350 17.9 101960 85
2008-07-24 07:52:52 51°17.154 2°49.239 6.3 353 17.9 101960 85
2008-07-24 07:52:57 51°17.168 2°49.224 5.6 354 17.9 101950 85
2008-07-24 07:53:03 51°17.185 2°49.207 6.2 353 17.9 101950 85
2008-07-24 07:53:08 51°17.2 2°49.193 6.1 353 17.9 101950 84
2008-07-24 07:53:13 51°17.214 2°49.179 5.6 353 17.9 101950 84
2008-07-24 07:53:16 51°17.223 2°49.17 5.9 353 17.9 101950 84
2008-07-24 07:53:23 51°17.243 2°49.15 5.7 352 17.9 101950 84
2008-07-24 07:53:28 51°17.257 2°49.135 5.8 351 17.8 101950 85
2008-07-24 07:53:32 51°17.269 2°49.124 6 355 17.8 101950 85
2008-07-24 07:53:37 51°17.283 2°49.11 6.2 355 17.8 101960 84
2008-07-24 07:53:43 51°17.301 2°49.094 6 353 17.8 101960 84
2008-07-24 07:53:48 51°17.315 2°49.08 6.1 351 17.8 101950 85
2008-07-24 07:53:52 51°17.327 2°49.068 5.7 354 17.8 101950 85
2008-07-24 07:53:56 51°17.339 2°49.058 5.8 353 17.8 101950 84
2008-07-24 07:54:03 51°17.359 2°49.038 5.9 353 17.8 101950 84
2008-07-24 07:54:08 51°17.373 2°49.024 5.7 355 17.8 101950 84
2008-07-24 07:54:13 51°17.388 2°49.009 5.6 356 17.8 101950 84
2008-07-24 07:54:16 51°17.396 2°49.001 5.6 357 17.8 101950 85
2008-07-24 07:54:23 51°17.416 2°48.981 5.7 356 17.8 101950 85
2008-07-24 07:54:28 51°17.431 2°48.966 6 355 17.8 101950 85
2008-07-24 07:54:32 51°17.442 2°48.955 6 354 17.8 101950 85
2008-07-24 07:54:38 51°17.46 2°48.939 5.5 355 17.8 101950 85
2008-07-24 07:54:43 51°17.474 2°48.925 5.8 354 17.8 101950 85
2008-07-24 07:54:48 51°17.489 2°48.911 5.7 354 17.8 101950 85
2008-07-24 07:54:52 51°17.501 2°48.9 5.5 356 17.8 101950 85
2008-07-24 07:54:58 51°17.518 2°48.883 5.8 356 17.8 101950 85
2008-07-24 07:55:03 51°17.533 2°48.869 5.7 357 17.8 101950 85
2008-07-24 07:55:08 51°17.547 2°48.855 5.6 355 17.8 101950 85
2008-07-24 07:55:12 51°17.559 2°48.844 5.9 357 17.8 101950 85
2008-07-24 07:55:16 51°17.571 2°48.833 6 357 17.8 101950 85
2008-07-24 07:55:23 51°17.591 2°48.813 5.6 358 17.8 101950 85
2008-07-24 07:55:28 51°17.606 2°48.8 5.1 357 17.8 101950 85
2008-07-24 07:55:33 51°17.62 2°48.786 5.8 356 17.8 101950 85
2008-07-24 07:55:37 51°17.632 2°48.775 5.8 356 17.8 101950 85
2008-07-24 07:55:43 51°17.649 2°48.759 5.5 358 17.8 101950 85
2008-07-24 07:55:48 51°17.664 2°48.744 5.8 357 17.8 101950 85
2008-07-24 07:55:53 51°17.678 2°48.731 5.8 359 17.8 101950 85
2008-07-24 07:55:56 51°17.687 2°48.723 5.3 359 17.8 101950 85
2008-07-24 07:56:03 51°17.707 2°48.703 5.1 359 17.8 101950 85
2008-07-24 07:56:08 51°17.722 2°48.689 5.1 1 17.8 101950 85
2008-07-24 07:56:12 51°17.733 2°48.678 4.9 1 17.8 101950 85
2008-07-24 07:56:17 51°17.748 2°48.664 5.4 357 17.8 101950 85
2008-07-24 07:56:23 51°17.765 2°48.648 4.9 359 17.8 101950 85
2008-07-24 07:56:28 51°17.78 2°48.633 4.7 360 17.8 101950 85
2008-07-24 07:56:32 51°17.792 2°48.623 5.3 358 17.8 101950 85
2008-07-24 07:56:37 51°17.806 2°48.609 4.8 1 17.7 101950 85
2008-07-24 07:56:43 51°17.824 2°48.593 4.8 359 17.7 101950 85
2008-07-24 07:56:48 51°17.838 2°48.579 5 360 17.8 101950 85
2008-07-24 07:56:52 51°17.85 2°48.567 4.9 1 17.8 101950 85
2008-07-24 07:56:58 51°17.868 2°48.551 5.1 359 17.8 101950 85
2008-07-24 07:57:03 51°17.882 2°48.537 5.2 359 17.8 101950 85
2008-07-24 07:57:08 51°17.897 2°48.523 5.1 358 17.8 101950 85
2008-07-24 07:57:12 51°17.909 2°48.512 5.1 356 17.8 101950 85
2008-07-24 07:57:16 51°17.92 2°48.501 4.8 357 17.8 101940 85
2008-07-24 07:57:23 51°17.941 2°48.481 5 357 17.8 101940 85
2008-07-24 07:57:28 51°17.956 2°48.467 5.5 360 17.8 101950 85
2008-07-24 07:57:32 51°17.967 2°48.456 5 -999 17.8 101950 85
2008-07-24 07:57:37 51°17.982 2°48.442 4.9 359 17.8 101950 85
2008-07-24 07:57:43 51°18 2°48.425 5 360 17.8 101950 85
2008-07-24 07:57:48 51°18.015 2°48.411 4.9 -999 17.8 101950 85
2008-07-24 07:57:52 51°18.026 2°48.4 5.2 359 17.8 101950 85
2008-07-24 07:57:56 51°18.038 2°48.389 5.2 358 17.8 101950 85
2008-07-24 07:58:03 51°18.058 2°48.369 5.1 2 17.8 101950 85
2008-07-24 07:58:08 51°18.073 2°48.355 5 359 17.8 101950 85
2008-07-24 07:58:13 51°18.088 2°48.342 5.2 359 17.8 101950 85
2008-07-24 07:58:16 51°18.097 2°48.334 5.2 1 17.8 101950 85
2008-07-24 07:58:23 51°18.117 2°48.314 5.5 358 17.8 101950 85
2008-07-24 07:58:28 51°18.132 2°48.3 5 358 17.8 101950 85
2008-07-24 07:58:32 51°18.144 2°48.289 4.6 1 17.8 101950 85
2008-07-24 07:58:36 51°18.156 2°48.278 4.8 360 17.8 101950 85
2008-07-24 07:58:43 51°18.176 2°48.259 5.2 1 17.8 101950 85
2008-07-24 07:58:48 51°18.191 2°48.245 5.4 360 17.8 101950 85
2008-07-24 07:58:52 51°18.203 2°48.234 4.8 2 17.8 101950 85
2008-07-24 07:58:56 51°18.215 2°48.223 5.2 359 17.8 101950 85
2008-07-24 07:59:03 51°18.236 2°48.204 4.8 1 17.8 101950 85
2008-07-24 07:59:07 51°18.247 2°48.193 5 359 17.8 101940 85
2008-07-24 07:59:12 51°18.262 2°48.179 4.7 1 17.8 101940 85
2008-07-24 07:59:18 51°18.28 2°48.162 5 1 17.8 101950 85
2008-07-24 07:59:23 51°18.294 2°48.148 5 358 17.8 101950 85
2008-07-24 07:59:28 51°18.309 2°48.134 5.2 -999 17.7 101940 85
2008-07-24 07:59:32 51°18.321 2°48.123 5.1 1 17.7 101940 85
2008-07-24 07:59:36 51°18.333 2°48.112 5.1 2 17.7 101950 85
2008-07-24 07:59:43 51°18.353 2°48.092 5.3 1 17.7 101950 85
2008-07-24 07:59:48 51°18.368 2°48.078 5.1 2 17.7 101950 85
2008-07-24 07:59:52 51°18.38 2°48.067 4.9 -999 17.7 101950 85
2008-07-24 07:59:56 51°18.392 2°48.056 5.2 360 17.7 101940 85
2008-07-24 08:00:03 51°18.412 2°48.036 5 357 17.7 101940 85
2008-07-24 08:00:08 51°18.427 2°48.023 5 359 17.7 101950 85
2008-07-24 08:00:12 51°18.439 2°48.011 5.2 357 17.7 101950 85
2008-07-24 08:00:17 51°18.454 2°47.997 5.1 359 17.7 101950 85
2008-07-24 08:00:23 51°18.472 2°47.98 5.1 356 17.7 101950 85
2008-07-24 08:00:28 51°18.486 2°47.966 5.8 356 17.7 101950 85
2008-07-24 08:00:32 51°18.498 2°47.955 5.2 360 17.7 101950 85
2008-07-24 08:00:38 51°18.516 2°47.938 5.2 359 17.7 101950 85
2008-07-24 08:00:43 51°18.531 2°47.924 5.1 359 17.7 101950 85
2008-07-24 08:00:48 51°18.546 2°47.909 4.9 353 17.7 101950 85
2008-07-24 08:00:53 51°18.56 2°47.895 5.3 354 17.7 101950 85
2008-07-24 08:00:56 51°18.569 2°47.887 5.3 356 17.7 101940 85
2008-07-24 08:01:03 51°18.59 2°47.867 5 356 17.7 101940 85
2008-07-24 08:01:08 51°18.605 2°47.853 5 357 17.7 101950 85
2008-07-24 08:01:12 51°18.617 2°47.842 4.8 356 17.7 101950 85
2008-07-24 08:01:18 51°18.635 2°47.826 5.5 355 17.7 101950 86
2008-07-24 08:01:23 51°18.65 2°47.813 5.5 354 17.7 101950 86
2008-07-24 08:01:28 51°18.665 2°47.8 5.4 356 17.7 101950 85
2008-07-24 08:01:32 51°18.677 2°47.79 5.4 353 17.7 101950 85
2008-07-24 08:01:38 51°18.695 2°47.774 5.9 357 17.7 101950 85
2008-07-24 08:01:43 51°18.71 2°47.761 5.5 354 17.7 101950 85
2008-07-24 08:01:48 51°18.726 2°47.748 5.7 355 17.7 101950 85
2008-07-24 08:01:52 51°18.738 2°47.738 5.3 357 17.7 101950 85
2008-07-24 08:01:58 51°18.755 2°47.722 5.7 358 17.7 101950 85
2008-07-24 08:02:03 51°18.77 2°47.709 5.1 355 17.7 101950 85
2008-07-24 08:02:08 51°18.785 2°47.695 5.2 356 17.7 101950 85
2008-07-24 08:02:12 51°18.797 2°47.684 5.3 354 17.7 101950 85
2008-07-24 08:02:16 51°18.809 2°47.673 5.6 352 17.7 101950 85
2008-07-24 08:02:23 51°18.83 2°47.654 5 356 17.7 101950 85
2008-07-24 08:02:28 51°18.845 2°47.64 5.8 355 17.7 101950 85
2008-07-24 08:02:32 51°18.856 2°47.628 5.7 352 17.7 101950 85
2008-07-24 08:02:36 51°18.868 2°47.617 5.3 354 17.8 101950 85
2008-07-24 08:02:43 51°18.888 2°47.597 5.5 353 17.8 101950 85
2008-07-24 08:02:48 51°18.903 2°47.583 5.5 355 17.8 101950 85
2008-07-24 08:02:52 51°18.915 2°47.571 5.4 356 17.8 101950 85
2008-07-24 08:02:58 51°18.932 2°47.554 5.6 355 17.8 101950 85
2008-07-24 08:03:03 51°18.947 2°47.54 5.6 354 17.8 101950 85
2008-07-24 08:03:08 51°18.962 2°47.526 5.3 357 17.8 101950 85
2008-07-24 08:03:13 51°18.977 2°47.513 5.5 354 17.8 101950 85
2008-07-24 08:03:18 51°18.991 2°47.498 5.3 354 17.8 101950 86
2008-07-24 08:03:23 51°19.006 2°47.484 5.2 355 17.8 101950 86
2008-07-24 08:03:28 51°19.021 2°47.469 5.5 354 17.8 101950 85
2008-07-24 08:03:32 51°19.032 2°47.458 5.4 355 17.8 101950 85
2008-07-24 08:03:38 51°19.05 2°47.44 5.5 358 17.7 101950 85
2008-07-24 08:03:43 51°19.065 2°47.426 5.2 355 17.7 101950 85
2008-07-24 08:03:48 51°19.08 2°47.411 5.6 355 17.8 101950 85
2008-07-24 08:03:52 51°19.091 2°47.399 5.2 355 17.8 101950 85
2008-07-24 08:03:58 51°19.109 2°47.382 5.6 355 17.8 101940 86
2008-07-24 08:04:03 51°19.124 2°47.367 5.5 356 17.8 101940 86
2008-07-24 08:04:08 51°19.138 2°47.353 5 357 17.8 101950 86
2008-07-24 08:04:13 51°19.153 2°47.339 5.1 357 17.8 101950 86
2008-07-24 08:04:17 51°19.165 2°47.327 5.1 357 17.8 101950 86
2008-07-24 08:04:23 51°19.183 2°47.31 4.8 357 17.8 101950 86
2008-07-24 08:04:28 51°19.197 2°47.295 5.4 356 17.8 101940 86
2008-07-24 08:04:32 51°19.209 2°47.284 5.3 356 17.8 101940 86
2008-07-24 08:04:36 51°19.221 2°47.273 5 357 17.7 101950 85
2008-07-24 08:04:43 51°19.242 2°47.253 5 358 17.7 101950 85
2008-07-24 08:04:48 51°19.257 2°47.238 4.7 359 17.7 101950 85
2008-07-24 08:04:53 51°19.272 2°47.224 4.8 353 17.7 101950 85
2008-07-24 08:04:57 51°19.284 2°47.212 5.6 356 17.7 101950 85
2008-07-24 08:05:03 51°19.301 2°47.195 5.3 357 17.7 101950 85
2008-07-24 08:05:08 51°19.316 2°47.181 5.2 358 17.7 101950 85
2008-07-24 08:05:13 51°19.331 2°47.166 5 358 17.7 101950 85
2008-07-24 08:05:17 51°19.343 2°47.155 5 359 17.7 101950 85
2008-07-24 08:05:23 51°19.361 2°47.138 5.4 357 17.7 101950 85
2008-07-24 08:05:28 51°19.376 2°47.124 6 357 17.7 101940 85
2008-07-24 08:05:33 51°19.39 2°47.11 5.8 357 17.7 101940 85
2008-07-24 08:05:37 51°19.402 2°47.099 5.3 359 17.7 101950 85
2008-07-24 08:05:43 51°19.421 2°47.082 5.6 360 17.7 101950 85
2008-07-24 08:05:48 51°19.435 2°47.068 5.3 359 17.7 101950 85
2008-07-24 08:05:52 51°19.448 2°47.058 5 357 17.7 101950 85
2008-07-24 08:05:58 51°19.465 2°47.042 5.5 358 17.7 101940 85
2008-07-24 08:06:03 51°19.481 2°47.029 5 358 17.7 101940 85
2008-07-24 08:06:08 51°19.495 2°47.015 5.4 -999 17.7 101950 86
2008-07-24 08:06:12 51°19.507 2°47.005 5 359 17.7 101950 86
2008-07-24 08:06:16 51°19.519 2°46.994 5.3 357 17.7 101950 86
2008-07-24 08:06:23 51°19.54 2°46.975 5.6 355 17.7 101950 86
2008-07-24 08:06:28 51°19.554 2°46.962 5.3 358 17.7 101950 86
2008-07-24 08:06:33 51°19.569 2°46.948 5.4 357 17.7 101950 86
2008-07-24 08:06:37 51°19.581 2°46.937 5.3 355 17.7 101940 86
2008-07-24 08:06:43 51°19.599 2°46.922 5.7 357 17.7 101940 86
2008-07-24 08:06:48 51°19.613 2°46.908 5.1 356 17.8 101950 86
2008-07-24 08:06:53 51°19.628 2°46.895 5.7 358 17.8 101950 86
2008-07-24 08:06:57 51°19.64 2°46.884 6 358 17.8 101950 86
2008-07-24 08:07:03 51°19.657 2°46.868 5.5 360 17.8 101950 86
2008-07-24 08:07:08 51°19.672 2°46.854 5.5 357 17.8 101940 86
2008-07-24 08:07:13 51°19.687 2°46.841 5.5 357 17.8 101940 86
2008-07-24 08:07:17 51°19.699 2°46.83 5.2 356 17.8 101950 86
2008-07-24 08:07:23 51°19.716 2°46.814 5.6 360 17.8 101950 86
2008-07-24 08:07:28 51°19.731 2°46.801 5.3 -999 17.8 101940 86
2008-07-24 08:07:32 51°19.743 2°46.79 5.4 356 17.8 101940 86
2008-07-24 08:07:37 51°19.758 2°46.776 5 357 17.8 101940 86
2008-07-24 08:07:43 51°19.776 2°46.76 5.5 358 17.8 101940 86
2008-07-24 08:07:48 51°19.79 2°46.746 5.5 356 17.8 101950 86
2008-07-24 08:07:53 51°19.805 2°46.733 5.6 356 17.8 101950 86
2008-07-24 08:07:57 51°19.817 2°46.722 5.3 357 17.8 101940 86
2008-07-24 08:08:03 51°19.835 2°46.706 5.6 357 17.8 101940 86
2008-07-24 08:08:08 51°19.85 2°46.694 5.8 356 17.7 101950 86
2008-07-24 08:08:12 51°19.863 2°46.683 5.6 355 17.7 101950 86
2008-07-24 08:08:18 51°19.881 2°46.668 5.4 356 17.8 101940 86
2008-07-24 08:08:23 51°19.896 2°46.655 5.4 358 17.8 101940 86
2008-07-24 08:08:28 51°19.911 2°46.642 5.4 358 17.7 101950 86
2008-07-24 08:08:32 51°19.923 2°46.631 5.6 354 17.7 101950 86
2008-07-24 08:08:38 51°19.941 2°46.616 6 357 17.7 101940 86
2008-07-24 08:08:43 51°19.956 2°46.602 5.8 358 17.7 101940 86
2008-07-24 08:08:48 51°19.971 2°46.589 5.7 360 17.7 101950 87
2008-07-24 08:08:52 51°19.983 2°46.578 5.1 357 17.7 101950 87
2008-07-24 08:08:56 51°19.995 2°46.567 5.9 356 17.8 101940 86
2008-07-24 08:09:03 51°20.016 2°46.547 5.5 1 17.8 101940 86
2008-07-24 08:09:08 51°20.031 2°46.533 5.5 357 17.8 101940 87
2008-07-24 08:09:13 51°20.045 2°46.519 5.4 1 17.8 101940 87
2008-07-24 08:09:16 51°20.054 2°46.511 5.4 -999 17.8 101940 87
2008-07-24 08:09:23 51°20.075 2°46.491 6 357 17.8 101940 87
2008-07-24 08:09:28 51°20.09 2°46.477 5.8 1 17.7 101940 87
2008-07-24 08:09:32 51°20.101 2°46.466 5.9 360 17.7 101940 87
2008-07-24 08:09:37 51°20.116 2°46.452 5.5 1 17.7 101940 86
2008-07-24 08:09:43 51°20.134 2°46.435 5.6 359 17.7 101940 86
2008-07-24 08:09:48 51°20.149 2°46.421 5.5 358 17.7 101940 87
2008-07-24 08:09:52 51°20.161 2°46.41 5.8 360 17.7 101940 87
2008-07-24 08:09:57 51°20.175 2°46.395 5.6 358 17.7 101940 87
2008-07-24 08:10:03 51°20.193 2°46.379 5.5 1 17.7 101940 87
2008-07-24 08:10:08 51°20.208 2°46.365 5.4 -999 17.7 101940 86
2008-07-24 08:10:13 51°20.223 2°46.351 5.3 359 17.7 101940 86
2008-07-24 08:10:18 51°20.238 2°46.337 5.4 1 17.7 101940 87
2008-07-24 08:10:23 51°20.253 2°46.323 6 357 17.7 101940 87
2008-07-24 08:10:28 51°20.268 2°46.309 5.8 358 17.7 101940 87
2008-07-24 08:10:32 51°20.28 2°46.297 5.7 359 17.7 101940 87
2008-07-24 08:10:38 51°20.298 2°46.281 5.7 1 17.7 101940 87
2008-07-24 08:10:43 51°20.313 2°46.267 5.9 360 17.7 101940 87
2008-07-24 08:10:48 51°20.328 2°46.253 6.1 -999 17.7 101940 87
2008-07-24 08:10:52 51°20.34 2°46.242 5.1 2 17.7 101940 87
2008-07-24 08:10:56 51°20.352 2°46.231 5.3 359 17.6 101950 87
2008-07-24 08:11:03 51°20.373 2°46.212 5.8 357 17.6 101950 87
2008-07-24 08:11:08 51°20.388 2°46.198 5.5 360 17.6 101940 86
2008-07-24 08:11:12 51°20.4 2°46.187 5.2 359 17.6 101940 86
2008-07-24 08:11:16 51°20.413 2°46.175 5.8 358 17.6 101940 87
2008-07-24 08:11:23 51°20.434 2°46.156 5.6 360 17.6 101940 87
2008-07-24 08:11:28 51°20.449 2°46.142 5.7 2 17.6 101950 87
2008-07-24 08:11:32 51°20.461 2°46.131 5.6 357 17.6 101950 87
2008-07-24 08:11:37 51°20.476 2°46.117 5.7 356 17.6 101950 87
2008-07-24 08:11:43 51°20.494 2°46.101 5.5 1 17.6 101950 87
2008-07-24 08:11:48 51°20.509 2°46.087 5.5 1 17.6 101940 87
2008-07-24 08:11:52 51°20.521 2°46.075 5.6 359 17.6 101940 87
2008-07-24 08:11:56 51°20.533 2°46.064 5.5 359 17.6 101940 87
2008-07-24 08:12:03 51°20.554 2°46.044 5.7 356 17.6 101940 87
2008-07-24 08:12:08 51°20.569 2°46.03 5.6 357 17.6 101950 87
2008-07-24 08:12:13 51°20.584 2°46.015 5.9 357 17.6 101950 87
2008-07-24 08:12:17 51°20.596 2°46.004 5.7 357 17.6 101950 87
2008-07-24 08:12:23 51°20.613 2°45.987 5.8 359 17.6 101950 87
2008-07-24 08:12:28 51°20.628 2°45.972 5.7 357 17.6 101940 87
2008-07-24 08:12:32 51°20.64 2°45.961 6 -999 17.6 101940 87
2008-07-24 08:12:38 51°20.658 2°45.945 6.3 359 17.6 101940 87
2008-07-24 08:12:43 51°20.673 2°45.93 5.9 358 17.6 101940 87
2008-07-24 08:12:48 51°20.688 2°45.917 6 358 17.6 101940 87
2008-07-24 08:12:52 51°20.7 2°45.906 6.1 360 17.6 101940 87
2008-07-24 08:12:58 51°20.718 2°45.89 6 358 17.6 101940 87
2008-07-24 08:13:03 51°20.733 2°45.877 6 358 17.6 101940 87
2008-07-24 08:13:08 51°20.749 2°45.863 6 356 17.6 101940 87
2008-07-24 08:13:13 51°20.764 2°45.849 5.9 359 17.6 101940 87
2008-07-24 08:13:16 51°20.773 2°45.841 5.6 357 17.6 101940 87
2008-07-24 08:13:23 51°20.794 2°45.822 6.3 357 17.6 101940 87
2008-07-24 08:13:28 51°20.81 2°45.809 5.9 360 17.6 101940 87
2008-07-24 08:13:32 51°20.822 2°45.799 6.2 359 17.6 101940 87
2008-07-24 08:13:36 51°20.834 2°45.789 6.4 357 17.6 101940 87
2008-07-24 08:13:43 51°20.856 2°45.77 6 358 17.6 101940 87
2008-07-24 08:13:48 51°20.871 2°45.757 5.9 359 17.6 101940 87
2008-07-24 08:13:52 51°20.884 2°45.747 6.2 358 17.6 101940 87
2008-07-24 08:13:56 51°20.896 2°45.737 6.2 358 17.6 101940 87
2008-07-24 08:14:03 51°20.918 2°45.719 6.5 358 17.6 101940 87
2008-07-24 08:14:08 51°20.933 2°45.708 6.2 359 17.6 101940 87
2008-07-24 08:14:12 51°20.946 2°45.697 6.2 360 17.6 101940 87
2008-07-24 08:14:16 51°20.958 2°45.688 6 358 17.6 101950 87
2008-07-24 08:14:23 51°20.98 2°45.67 5.7 2 17.6 101950 87
2008-07-24 08:14:28 51°20.996 2°45.659 5.9 1 17.6 101950 87
2008-07-24 08:14:32 51°21.008 2°45.648 6.2 360 17.6 101950 87
2008-07-24 08:14:38 51°21.027 2°45.634 6 -999 17.6 101940 87
2008-07-24 08:14:43 51°21.042 2°45.621 6.1 357 17.6 101940 87
2008-07-24 08:14:48 51°21.058 2°45.609 6.8 1 17.5 101940 87
2008-07-24 08:14:52 51°21.07 2°45.598 6.2 -999 17.5 101940 87
2008-07-24 08:14:58 51°21.088 2°45.584 6.3 358 17.5 101940 87
2008-07-24 08:15:03 51°21.104 2°45.571 6 1 17.5 101940 87
2008-07-24 08:15:08 51°21.119 2°45.558 5.8 3 17.6 101940 87
2008-07-24 08:15:12 51°21.131 2°45.547 5.5 -999 17.6 101940 87
2008-07-24 08:15:18 51°21.149 2°45.531 5.7 1 17.6 101940 87
2008-07-24 08:15:23 51°21.164 2°45.517 6 2 17.6 101940 87
2008-07-24 08:15:28 51°21.179 2°45.504 5.9 2 17.6 101940 87
2008-07-24 08:15:32 51°21.191 2°45.493 6.3 1 17.6 101940 87
2008-07-24 08:15:36 51°21.203 2°45.482 5.7 1 17.6 101950 87
2008-07-24 08:15:43 51°21.223 2°45.463 5.5 2 17.6 101950 87
2008-07-24 08:15:48 51°21.239 2°45.449 5.2 2 17.5 101940 87
2008-07-24 08:15:53 51°21.253 2°45.435 5.2 3 17.5 101940 87
2008-07-24 08:15:57 51°21.265 2°45.424 5 4 17.6 101940 87
2008-07-24 08:16:03 51°21.282 2°45.406 5.7 -999 17.6 101940 87
2008-07-24 08:16:08 51°21.297 2°45.392 5.3 360 17.6 101940 87
2008-07-24 08:16:13 51°21.312 2°45.378 5.4 359 17.6 101940 87
2008-07-24 08:16:16 51°21.32 2°45.369 5.7 360 17.6 101950 87
2008-07-24 08:16:23 51°21.341 2°45.35 5.5 -999 17.6 101950 87
2008-07-24 08:16:28 51°21.356 2°45.336 5.5 2 17.5 101940 87
2008-07-24 08:16:32 51°21.367 2°45.324 5.6 1 17.5 101940 87
2008-07-24 08:16:36 51°21.379 2°45.314 5.8 358 17.6 101950 87
2008-07-24 08:16:43 51°21.4 2°45.294 5.9 1 17.6 101950 87
2008-07-24 08:16:48 51°21.415 2°45.282 5.4 1 17.6 101940 87
2008-07-24 08:16:52 51°21.428 2°45.27 5.1 2 17.6 101940 87
2008-07-24 08:16:58 51°21.446 2°45.254 5.3 -999 17.6 101950 87
2008-07-24 08:17:03 51°21.46 2°45.24 5.1 360 17.6 101950 87
2008-07-24 08:17:08 51°21.475 2°45.226 5.6 359 17.6 101940 87
2008-07-24 08:17:12 51°21.487 2°45.215 5.4 1 17.6 101940 87
2008-07-24 08:17:18 51°21.505 2°45.198 5.3 2 17.6 101940 87
2008-07-24 08:17:23 51°21.52 2°45.183 5.2 1 17.6 101940 87
2008-07-24 08:17:28 51°21.535 2°45.17 4.8 2 17.6 101940 87
2008-07-24 08:17:32 51°21.547 2°45.159 6.1 2 17.6 101940 87
2008-07-24 08:17:37 51°21.562 2°45.145 6 2 17.6 101940 87
2008-07-24 08:17:43 51°21.58 2°45.129 5.6 357 17.6 101940 87
2008-07-24 08:17:48 51°21.596 2°45.116 6.2 1 17.5 101940 87
2008-07-24 08:17:52 51°21.608 2°45.105 5.3 2 17.5 101940 87
2008-07-24 08:17:56 51°21.62 2°45.094 5.2 4 17.6 101940 87
2008-07-24 08:18:03 51°21.641 2°45.075 5.6 358 17.6 101940 87
2008-07-24 08:18:08 51°21.656 2°45.061 6 357 17.6 101940 87
2008-07-24 08:18:12 51°21.668 2°45.05 6 1 17.6 101940 87
2008-07-24 08:18:17 51°21.683 2°45.036 5.9 359 17.5 101940 87
2008-07-24 08:18:23 51°21.701 2°45.019 5.6 1 17.5 101940 87
2008-07-24 08:18:28 51°21.716 2°45.005 5.6 2 17.6 101940 87
2008-07-24 08:18:33 51°21.731 2°44.991 5.5 2 17.6 101940 87
2008-07-24 08:18:37 51°21.743 2°44.98 5.4 2 17.6 101940 87
2008-07-24 08:18:43 51°21.761 2°44.963 5.5 -999 17.6 101940 87
2008-07-24 08:18:48 51°21.776 2°44.949 5.8 1 17.6 101940 87
2008-07-24 08:18:53 51°21.791 2°44.935 5.8 1 17.6 101940 87
2008-07-24 08:18:57 51°21.803 2°44.924 5.6 2 17.6 101940 87
2008-07-24 08:19:03 51°21.821 2°44.907 5.4 3 17.6 101940 87
2008-07-24 08:19:08 51°21.836 2°44.893 5.5 3 17.5 101940 87
2008-07-24 08:19:12 51°21.848 2°44.882 5.4 1 17.5 101940 87
2008-07-24 08:19:17 51°21.863 2°44.869 5.8 1 17.6 101940 87
2008-07-24 08:19:23 51°21.881 2°44.852 5.4 3 17.6 101940 87
2008-07-24 08:19:28 51°21.896 2°44.838 5.6 1 17.6 101940 87
2008-07-24 08:19:32 51°21.909 2°44.827 5.5 1 17.6 101940 87
2008-07-24 08:19:38 51°21.927 2°44.811 5.8 2 17.6 101940 87
2008-07-24 08:19:43 51°21.942 2°44.797 5.8 4 17.6 101940 87
2008-07-24 08:19:48 51°21.957 2°44.784 5.7 4 17.6 101940 87
2008-07-24 08:19:53 51°21.972 2°44.77 4.6 3 17.6 101940 87
2008-07-24 08:19:57 51°21.984 2°44.759 5 5 17.6 101950 87
2008-07-24 08:20:03 51°22.002 2°44.742 4.7 2 17.6 101950 87
2008-07-24 08:20:08 51°22.017 2°44.729 5.4 1 17.6 101940 87
2008-07-24 08:20:13 51°22.033 2°44.716 4.8 3 17.6 101940 87
2008-07-24 08:20:17 51°22.045 2°44.705 5.4 4 17.6 101940 87
2008-07-24 08:20:23 51°22.063 2°44.689 5.5 358 17.6 101940 87
2008-07-24 08:20:28 51°22.078 2°44.676 5.5 4 17.6 101930 87
2008-07-24 08:20:33 51°22.093 2°44.662 5.4 3 17.6 101930 87
2008-07-24 08:20:37 51°22.105 2°44.651 5.2 2 17.6 101940 87
2008-07-24 08:20:43 51°22.123 2°44.635 5.6 359 17.6 101940 87
2008-07-24 08:20:48 51°22.138 2°44.622 5.5 2 17.6 101950 87
2008-07-24 08:20:53 51°22.153 2°44.608 6.2 2 17.6 101950 87
2008-07-24 08:20:57 51°22.165 2°44.597 5.6 3 17.6 101940 87
2008-07-24 08:21:03 51°22.183 2°44.58 5.1 2 17.6 101940 87
2008-07-24 08:21:08 51°22.198 2°44.567 5.6 1 17.6 101940 87
2008-07-24 08:21:13 51°22.213 2°44.553 5.5 359 17.6 101940 87
2008-07-24 08:21:18 51°22.228 2°44.539 5.6 3 17.6 101940 87
2008-07-24 08:21:23 51°22.243 2°44.525 5.7 1 17.6 101940 87
2008-07-24 08:21:28 51°22.258 2°44.512 5.6 359 17.6 101940 87
2008-07-24 08:21:32 51°22.27 2°44.501 6.1 360 17.6 101940 87
2008-07-24 08:21:38 51°22.288 2°44.485 5.9 1 17.6 101940 87
2008-07-24 08:21:43 51°22.303 2°44.471 6 -999 17.6 101940 87
2008-07-24 08:21:48 51°22.318 2°44.457 6.1 1 17.7 101940 87
2008-07-24 08:21:53 51°22.333 2°44.443 5.9 1 17.7 101940 87
2008-07-24 08:21:58 51°22.348 2°44.429 6.1 1 17.6 101940 87
2008-07-24 08:22:03 51°22.363 2°44.415 5.9 -999 17.6 101940 87
2008-07-24 08:22:08 51°22.377 2°44.401 6 1 17.6 101940 87
2008-07-24 08:22:13 51°22.392 2°44.387 5.4 -999 17.6 101940 87
2008-07-24 08:22:17 51°22.404 2°44.376 5.7 -999 17.7 101940 87
2008-07-24 08:22:23 51°22.422 2°44.36 5.5 356 17.7 101940 87
2008-07-24 08:22:28 51°22.437 2°44.346 6.1 -999 17.6 101940 87
2008-07-24 08:22:32 51°22.449 2°44.335 5.5 358 17.6 101940 87
2008-07-24 08:22:37 51°22.464 2°44.322 5.8 357 17.6 101940 87
2008-07-24 08:22:43 51°22.482 2°44.305 6.3 357 17.6 101940 87
2008-07-24 08:22:48 51°22.497 2°44.292 6.1 359 17.6 101940 87
2008-07-24 08:22:53 51°22.512 2°44.277 5.8 358 17.6 101940 87
2008-07-24 08:22:57 51°22.524 2°44.267 6.3 357 17.6 101940 87
2008-07-24 08:23:03 51°22.541 2°44.249 6.2 358 17.6 101940 87
2008-07-24 08:23:08 51°22.556 2°44.235 6 357 17.6 101940 87
2008-07-24 08:23:12 51°22.568 2°44.224 6 1 17.6 101940 87
2008-07-24 08:23:17 51°22.583 2°44.21 6 -999 17.6 101940 87
2008-07-24 08:23:23 51°22.6 2°44.193 6.1 357 17.6 101940 87
2008-07-24 08:23:28 51°22.615 2°44.179 5.9 360 17.6 101940 87
2008-07-24 08:23:33 51°22.63 2°44.166 6.2 1 17.6 101940 87
2008-07-24 08:23:38 51°22.644 2°44.152 6.1 -999 17.6 101940 87
2008-07-24 08:23:43 51°22.66 2°44.138 5.6 3 17.6 101940 87
2008-07-24 08:23:48 51°22.674 2°44.124 6.1 -999 17.6 101940 87
2008-07-24 08:23:52 51°22.686 2°44.112 5.8 -999 17.6 101940 87
2008-07-24 08:23:58 51°22.704 2°44.096 6 1 17.6 101940 87
2008-07-24 08:24:03 51°22.719 2°44.081 6.1 359 17.6 101940 87
2008-07-24 08:24:08 51°22.734 2°44.067 5.8 360 17.6 101940 87
2008-07-24 08:24:12 51°22.746 2°44.056 6.5 359 17.6 101940 87
2008-07-24 08:24:17 51°22.761 2°44.043 6.3 1 17.6 101940 86
2008-07-24 08:24:23 51°22.779 2°44.026 5.9 1 17.6 101940 86
2008-07-24 08:24:28 51°22.794 2°44.013 6 1 17.6 101940 87
2008-07-24 08:24:32 51°22.806 2°44.003 6.1 357 17.6 101940 87
2008-07-24 08:24:37 51°22.821 2°43.989 6.5 359 17.5 101940 87
2008-07-24 08:24:43 51°22.839 2°43.973 6.1 359 17.5 101940 87
2008-07-24 08:24:48 51°22.854 2°43.96 6.3 359 17.5 101940 86
2008-07-24 08:24:53 51°22.869 2°43.946 6.6 1 17.5 101940 86
2008-07-24 08:24:57 51°22.881 2°43.936 5.9 2 17.6 101940 87
2008-07-24 08:25:03 51°22.899 2°43.92 5.9 360 17.6 101940 87
2008-07-24 08:25:08 51°22.915 2°43.907 5.7 359 17.6 101940 87
2008-07-24 08:25:13 51°22.93 2°43.894 6.2 2 17.6 101940 87
2008-07-24 08:25:17 51°22.942 2°43.884 5.6 3 17.6 101940 87
2008-07-24 08:25:23 51°22.96 2°43.869 6 2 17.6 101940 87
2008-07-24 08:25:28 51°22.976 2°43.856 6 1 17.6 101940 87
2008-07-24 08:25:33 51°22.991 2°43.843 5.7 2 17.6 101940 87
2008-07-24 08:25:38 51°23.006 2°43.83 5.6 2 17.6 101940 87
2008-07-24 08:25:43 51°23.021 2°43.816 5.5 1 17.6 101940 87
2008-07-24 08:25:48 51°23.036 2°43.803 5.3 4 17.6 101940 87
2008-07-24 08:25:53 51°23.051 2°43.788 5.5 3 17.6 101940 87
2008-07-24 08:25:58 51°23.066 2°43.774 5.8 360 17.6 101940 87
2008-07-24 08:26:03 51°23.081 2°43.76 5.5 358 17.6 101940 87
2008-07-24 08:26:08 51°23.096 2°43.747 6.3 -999 17.6 101940 87
2008-07-24 08:26:12 51°23.108 2°43.736 5.8 358 17.6 101940 87
2008-07-24 08:26:17 51°23.123 2°43.722 5.3 3 17.6 101940 87
2008-07-24 08:26:23 51°23.14 2°43.706 5.1 4 17.6 101940 87
2008-07-24 08:26:28 51°23.155 2°43.691 5 4 17.6 101940 87
2008-07-24 08:26:32 51°23.167 2°43.68 5 359 17.6 101940 87
2008-07-24 08:26:37 51°23.182 2°43.666 5 357 17.6 101940 87
2008-07-24 08:26:43 51°23.2 2°43.648 5 2 17.6 101940 87
2008-07-24 08:26:48 51°23.215 2°43.634 5.4 3 17.6 101940 87
2008-07-24 08:26:52 51°23.227 2°43.623 5.3 2 17.6 101940 87
2008-07-24 08:26:57 51°23.242 2°43.61 5.7 6 17.6 101940 87
2008-07-24 08:27:03 51°23.26 2°43.593 5.2 2 17.6 101940 87
2008-07-24 08:27:08 51°23.275 2°43.579 5.1 5 17.6 101940 87
2008-07-24 08:27:12 51°23.287 2°43.568 5.2 3 17.6 101940 87
2008-07-24 08:27:17 51°23.302 2°43.554 5.9 2 17.6 101940 87
2008-07-24 08:27:23 51°23.321 2°43.538 5.8 360 17.6 101940 87
2008-07-24 08:27:28 51°23.336 2°43.524 5.9 356 17.6 101940 87
2008-07-24 08:27:33 51°23.351 2°43.51 6 2 17.6 101940 87
2008-07-24 08:27:37 51°23.363 2°43.498 5.4 -999 17.6 101940 87
2008-07-24 08:27:43 51°23.381 2°43.481 5.8 -999 17.6 101940 87
2008-07-24 08:27:48 51°23.396 2°43.467 5.9 359 17.6 101940 87
2008-07-24 08:27:53 51°23.411 2°43.453 5.7 3 17.6 101940 87
2008-07-24 08:27:57 51°23.423 2°43.442 5.9 3 17.6 101940 87
2008-07-24 08:28:03 51°23.441 2°43.425 5.3 2 17.6 101940 87
2008-07-24 08:28:08 51°23.456 2°43.41 5 4 17.6 101950 87
2008-07-24 08:28:12 51°23.468 2°43.399 5.4 5 17.6 101950 87
2008-07-24 08:28:18 51°23.486 2°43.382 5.1 3 17.6 101940 87
2008-07-24 08:28:23 51°23.501 2°43.369 5.9 359 17.6 101940 87
2008-07-24 08:28:28 51°23.516 2°43.355 6.9 359 17.6 101940 87
2008-07-24 08:28:32 51°23.528 2°43.345 5.9 2 17.6 101940 87
2008-07-24 08:28:38 51°23.546 2°43.328 6 359 17.6 101940 87
2008-07-24 08:28:43 51°23.561 2°43.315 5.8 -999 17.6 101940 87
2008-07-24 08:28:48 51°23.577 2°43.301 3.3 1 17.6 101950 87
2008-07-24 08:28:52 51°23.589 2°43.291 6.2 357 17.6 101950 87
2008-07-24 08:28:57 51°23.604 2°43.277 5.7 357 17.6 101940 87
2008-07-24 08:29:03 51°23.622 2°43.26 6.3 3 17.6 101940 87
2008-07-24 08:29:08 51°23.637 2°43.247 6.1 358 17.6 101940 87
2008-07-24 08:29:13 51°23.652 2°43.233 6.3 3 17.6 101940 87
2008-07-24 08:29:17 51°23.664 2°43.223 6 1 17.6 101940 87
2008-07-24 08:29:23 51°23.682 2°43.207 5.7 1 17.6 101940 87
2008-07-24 08:29:28 51°23.697 2°43.194 5.8 360 17.6 101940 87
2008-07-24 08:29:32 51°23.709 2°43.183 5.9 -999 17.6 101940 87
2008-07-24 08:29:38 51°23.727 2°43.167 6.1 3 17.6 101940 87
2008-07-24 08:29:43 51°23.743 2°43.154 6.1 357 17.6 101940 87
2008-07-24 08:29:48 51°23.757 2°43.14 6.2 358 17.6 101940 87
2008-07-24 08:29:53 51°23.772 2°43.126 5.1 3 17.6 101940 87
2008-07-24 08:29:57 51°23.784 2°43.115 5.9 -999 17.6 101940 87
2008-07-24 08:30:03 51°23.802 2°43.098 5.2 3 17.6 101940 87
2008-07-24 08:30:08 51°23.817 2°43.083 5.7 4 17.6 101940 87
2008-07-24 08:30:13 51°23.832 2°43.069 5.9 4 17.6 101940 87
2008-07-24 08:30:17 51°23.844 2°43.058 5.9 -999 17.6 101940 87
2008-07-24 08:30:23 51°23.861 2°43.041 5.9 358 17.6 101940 87
2008-07-24 08:30:28 51°23.876 2°43.028 5.8 359 17.6 101940 87
2008-07-24 08:30:33 51°23.891 2°43.013 5.9 3 17.6 101940 87